TITAN 3C TRANSTAGE R/B, 7324

Orbit data source: Space-Track

TITAN 3C TRANSTAGE R/B, 7324 is space debris in GEO originally from a launch on Thu, 30 May 1974 UTC launched from the Air Force Eastern Test Range (AFETR). Debris objects in space refer to the collection of defunct objects orbiting the Earth. Examples of debris include non-operational satellites, rocket bodies, and fragments generated from explosions, collisions, or faulty payload assembly.

Not visible in the next 10 days
TITAN 3C TRANSTAGE R/B details
Identifier
7324, 1974-039C
Orbit
GEO
Last TLE update12 hours ago
Origin
Flag of USNASA LeRC (US)
ManufacturerMartin Marietta
MissionSpacecraft
Bus & MotorTRANSTAGE, Unknown motor
Mass~1,950 kg wet, ~1,950 kg dry
Launch date (UTC)
1974-05-30 (51 years ago)
Launch vehicleUnknown
Launch site
Air Force Eastern Test Range (AFETR)
Object type
Payload
Rocket body
Debris
Shape & HBRCyl + 2 Nozzle, 4.6 m
Radar Cross Section14.974 m², Large (>1 m²)

Expand to show TLE details & history

TLE from 12 hours ago
0 TITAN 3C TRANSTAGE R/B
1 07324U 74039C   24361.23771007 -.00000113  00000-0  00000-0 0  9998
2 07324   4.1261 271.0490 0033391  63.6278 176.4879  1.00714431114207
Epoch: 2024-12-26T05:42Z
Definitive object data (Epoch: 2024-12-26T05:42:18.15Z)
Latitude-3.57483°
Longitude-29.68793°
Altitude35,802.697 km
Speed3.069 km/s
True Right ascension10h 04m 25s
True Declination-3° 34' 16"
Sunlit
Object was in daylight at TLE epoch
Visualization TLE readout
Latitude3.63039°
Longitude151.92133°
Altitude35,522.237 km
Speed3.09 km/s
Apparent Right ascension22h 37m 34s
Apparent Declination-1° 59' 16"
Sunlit
Object is in daylight
Visualization observer readout
Local Sidereal Time17:06:05
Azimuth96.112° ESE
Elevation4.179°
Doppler factor1
Orbital elements
Apogee altitude35,804.408 km
Perigee altitude35,523.642 km
Semi-major axis42,042.162 km
Eccentricity0.0033391
Inclination4.1261°
RAAN271.049°
Arg. of periapsis63.6278°
True anomaly176.51124°
Mean anomaly176.4879°
Eccentric anomaly176.49958°
Mean motion0.25178 °/min
BSTARUnknown
Orbital period1429.84 mins
Loading historical data...
7324 neighbors
Authenticating...
Loading maneuver chart data...
Loading historical data...
Loading historical data...
Loading historical data...
Loading historical data...
Loading historical data...
Loading historical data...
Loading historical data...

TITAN 3C TRANSTAGE R/B Visibility forecast

Observer location: undefined°, undefined

TITAN 3C TRANSTAGE R/B is not visible in the next 10 days
Span
Click to sort rows by Start time (UTC) header in descending order
Start Az.
Max El. time (UTC)
Max El. Az.
Max El.
End time (UTC)
End Az.
|